This demonstration page uses our WeatherBlox Daily Observations layout. Learn more.

Left ArrowRight Arrow

31.84235, -102.49876

Hourly Observations for June 24, 2022

Temp ( °F °C ) Dew Point ( °F °C ) Humidity (%) Winds ( mph kmh ) Pressure ( in mb ) Visibility ( mi km ) Precip ( " mm )
12:53 am 00:53 Clear 85 29.4 47 8.3 27 27 S 12 19 29.83 1010 10 16 0.00 0.00
1:53 am 01:53 Clear 83 28.3 47 8.3 28 28 S 12 19 29.82 1010 10 16 0.00 0.00
2:53 am 02:53 Clear 82 27.8 48 8.9 31 31 S 13 20 29.81 1010 10 16 0.00 0.00
3:53 am 03:53 Clear 81 27.2 48 8.9 32 32 S 9 15 29.81 1010 10 16 0.00 0.00
4:53 am 04:53 Clear 79 26.1 48 8.9 34 34 S 9 15 29.81 1010 10 16 0.00 0.00
5:53 am 05:53 Clear 77 25 49 9.4 37 37 SSW 7 11 29.82 1010 10 16 0.00 0.00
6:53 am 06:53 Sunny 77 25 48 8.9 36 36 S 7 11 29.83 1010 10 16 0.00 0.00
7:53 am 07:53 Sunny 80 26.7 50 10 35 35 S 10 17 29.84 1010 10 16 0.00 0.00
8:53 am 08:53 Sunny 83 28.3 51 10.6 33 33 S 14 22 29.85 1011 10 16 0.00 0.00
9:53 am 09:53 Sunny 86 30 52 11.1 31 31 SSW 21 33 29.86 1011 10 16 0.00 0.00
10:53 am 10:53 Sunny 89 31.7 52 11.1 28 28 S 18 30 29.85 1011 10 16 0.00 0.00
11:53 am 11:53 Sunny 92 33.3 52 11.1 26 26 SSW 16 26 29.85 1011 10 16 0.00 0.00
12:53 pm 12:53 Sunny 95 35 49 9.4 21 21 S 18 30 29.83 1010 10 16 0.00 0.00
1:53 pm 13:53 Sunny 96 35.6 49 9.4 20 20 S 15 24 29.81 1010 10 16 0.00 0.00
2:17 pm 14:17 Sunny 97 36.1 49 9.4 20 20 SSE 14 22 29.70 1006 10 16 0.00 0.00
2:53 pm 14:53 Sunny 98 36.7 48 8.9 18 18 WSW 14 22 29.79 1009 10 16 0.00 0.00
3:53 pm 15:53 Sunny 98 36.7 47 8.3 17 17 ESE 12 19 29.76 1008 10 16 0.00 0.00
4:53 pm 16:53 Sunny 98 36.7 47 8.3 17 17 VRB 6 9 29.75 1008 10 16 0.00 0.00
5:53 pm 17:53 Sunny 98 36.7 46 7.8 17 17 SSE 7 11 29.74 1007 10 16 0.00 0.00
6:53 pm 18:53 Sunny 98 36.7 44 6.7 16 16 S 12 19 29.73 1007 10 16 0.00 0.00
7:53 pm 19:53 Sunny 96 35.6 46 7.8 18 18 SE 13 20 29.73 1007 10 16 0.00 0.00
8:53 pm 20:53 Sunny 94 34.4 47 8.3 20 20 SSE 13 20 29.75 1007 10 16 0.00 0.00
9:53 pm 21:53 Clear 92 33.3 48 8.9 22 22 S 10 17 29.76 1008 10 16 0.00 0.00
10:53 pm 22:53 Clear 90 32.2 46 7.8 22 22 SSE 14 22 29.78 1009 10 16 0.00 0.00
11:53 pm 23:53 Clear 88 31.1 45 7.2 22 22 S 13 20 29.79 1009 10 16 0.00 0.00

Powered by AerisWeather